This is the latest recevied weather packets stored in our database for station/object SP4MAZ-13. If no packets are shown the sender has not sent any weather packets the latest 10 day(s).
| Time | Temp. | Humidity | Pressure | Rain* | Wind** | Luminosity | Snow |
|---|---|---|---|---|---|---|---|
| 1778008034 | 11.67° C | 68% | 2147.4 hPa | - | - | - | - |
| 1778007730 | 11.67° C | 68% | 2147.4 hPa | - | - | - | - |
| 1778007427 | 11.67° C | 66% | 2147.4 hPa | - | - | - | - |
| 1778007123 | 11.67° C | 67% | 2147.4 hPa | - | - | - | - |
| 1778006822 | 11.67° C | 67% | 2147.4 hPa | - | - | - | - |
| 1778006518 | 12.22° C | 69% | 2147.4 hPa | - | - | - | - |
| 1778006215 | 12.22° C | 68% | 2147.4 hPa | - | - | - | - |
| 1778005911 | 12.22° C | 68% | 2147.4 hPa | - | - | - | - |
| 1778005304 | 12.78° C | 70% | 2147.4 hPa | - | - | - | - |
| 1778005001 | 12.78° C | 71% | 2147.4 hPa | - | - | - | - |
| 1778004699 | 12.78° C | 74% | 2147.4 hPa | - | - | - | - |
| 1778004397 | 12.78° C | 69% | 2147.4 hPa | - | - | - | - |
| 1778004093 | 13.33° C | 68% | 2147.4 hPa | - | - | - | - |
| 1778003792 | 13.33° C | 70% | 2147.4 hPa | - | - | - | - |
| 1778003490 | 13.33° C | 74% | 2147.4 hPa | - | - | - | - |
| 1778003186 | 13.89° C | 76% | 2147.4 hPa | - | - | - | - |
| 1778002885 | 14.44° C | 83% | 2147.4 hPa | - | - | - | - |
| 1778002582 | 14.44° C | 90% | 2147.4 hPa | - | - | - | - |
| 1778002281 | 14.44° C | 89% | 2147.4 hPa | - | - | - | - |
| 1778001977 | 13.89° C | 92% | 2147.4 hPa | - | - | - | - |
| 1778001674 | 14.44° C | 89% | 2147.4 hPa | - | - | - | - |
| 1778001370 | 14.44° C | 91% | 2147.4 hPa | - | - | - | - |
| 1778001067 | 14.44° C | 89% | 2147.4 hPa | - | - | - | - |
| 1778000766 | 14.44° C | 90% | 2147.4 hPa | - | - | - | - |
| 1778000462 | 14.44° C | 88% | 2147.4 hPa | - | - | - | - |
* Rain since midnight (hover to see other rain measurements)
** Current wind speed in m/s (hover to see current wind gust speed)